When you browse on this site, cookies collect data to enhance your experience and personalize the content and advertising you see.
Visit our Privacy Policy to learn more. By continuing to use the site, you agree to this use of cookies and data.
  • Em Portugal
  • Lista de países
  • Para 7 dias
  • Temperatura da água
  • Mapas de satélite
  • Mapa do tempo
  • Widgets de tempo
  • user-avatar
    Iniciar Sessão

    Previsão horária em Aracaju

    Hoje, 15 Dezembro, Sábado

    Tempo Temperatura Precipitação Vento Pressão Humidade
    00:00 +26°C° 0 mm 3 m/s 761 mmHg 80%
    01:00 +26°C° 0 mm 3 m/s 761 mmHg 82%
    02:00 +26°C° 0 mm 3 m/s 761 mmHg 83%
    03:00 +26°C° 0 mm 3 m/s 761 mmHg 83%
    04:00 +25°C° 0 mm 3 m/s 761 mmHg 84%
    05:00 +26°C° 0.1 mm 3 m/s 761 mmHg 82%
    06:00 +26°C° 0.1 mm 3 m/s 761 mmHg 81%
    07:00 +26°C° 0.1 mm 3 m/s 762 mmHg 79%
    08:00 +28°C° 0 mm 3 m/s 762 mmHg 72%
    09:00 +29°C° 0 mm 4 m/s 762 mmHg 65%
    10:00 +32°C° 0 mm 4 m/s 762 mmHg 58%
    11:00 +32°C° 0 mm 4 m/s 762 mmHg 56%
    12:00 +33°C° 0 mm 4 m/s 761 mmHg 53%
    13:00 +33°C° 0 mm 4 m/s 761 mmHg 51%
    14:00 +33°C° 0 mm 5 m/s 761 mmHg 52%
    15:00 +33°C° 0 mm 5 m/s 760 mmHg 53%
    16:00 +32°C° 0 mm 5 m/s 760 mmHg 54%
    17:00 +30°C° 0 mm 4 m/s 760 mmHg 60%
    18:00 +29°C° 0 mm 4 m/s 760 mmHg 66%
    19:00 +28°C° 0 mm 4 m/s 760 mmHg 72%
    20:00 +27°C° 0 mm 4 m/s 760 mmHg 74%
    21:00 +27°C° 0 mm 4 m/s 761 mmHg 77%
    22:00 +26°C° 0 mm 4 m/s 762 mmHg 80%
    23:00 +26°C° 0 mm 4 m/s 762 mmHg 80%

    Amanhã, 16 Dezembro, Domingo

    Tempo Temperatura Precipitação Vento Pressão Humidade
    00:00 +26°C° 0 mm 3 m/s 762 mmHg 81%
    01:00 +26°C° 0 mm 3 m/s 762 mmHg 81%
    02:00 +26°C° 0 mm 3 m/s 761 mmHg 81%
    03:00 +26°C° 0 mm 3 m/s 761 mmHg 81%
    04:00 +25°C° 0 mm 3 m/s 761 mmHg 82%
    05:00 +26°C° 0 mm 3 m/s 761 mmHg 80%
    06:00 +26°C° 0 mm 3 m/s 761 mmHg 79%
    07:00 +26°C° 0 mm 3 m/s 762 mmHg 78%
    08:00 +28°C° 0 mm 3 m/s 762 mmHg 71%
    09:00 +29°C° 0 mm 4 m/s 762 mmHg 64%
    10:00 +32°C° 0 mm 5 m/s 762 mmHg 58%
    11:00 +32°C° 0 mm 5 m/s 762 mmHg 56%
    12:00 +33°C° 0 mm 5 m/s 762 mmHg 54%
    13:00 +33°C° 0 mm 5 m/s 762 mmHg 52%
    14:00 +33°C° 0 mm 5 m/s 761 mmHg 54%
    15:00 +33°C° 0 mm 5 m/s 760 mmHg 55%
    16:00 +32°C° 0 mm 5 m/s 760 mmHg 57%
    17:00 +30°C° 0 mm 4 m/s 760 mmHg 62%
    18:00 +29°C° 0 mm 4 m/s 760 mmHg 67%
    19:00 +28°C° 0 mm 3 m/s 760 mmHg 72%
    20:00 +27°C° 0 mm 3 m/s 761 mmHg 74%
    21:00 +27°C° 0 mm 3 m/s 761 mmHg 77%
    22:00 +27°C° 0 mm 3 m/s 762 mmHg 80%
    23:00 +26°C° 0 mm 3 m/s 761 mmHg 81%

    Depois de amanhã, 17 Dezembro, Segunda-feira

    Tempo Temperatura Precipitação Vento Pressão Humidade
    00:00 +26°C° 0 mm 3 m/s 761 mmHg 82%
    01:00 +26°C° 0 mm 3 m/s 761 mmHg 83%
    02:00 +26°C° 0 mm 3 m/s 760 mmHg 84%
    03:00 +26°C° 0 mm 3 m/s 760 mmHg 84%
    04:00 +26°C° 0 mm 3 m/s 759 mmHg 85%
    05:00 +26°C° 0 mm 3 m/s 760 mmHg 84%
    06:00 +26°C° 0 mm 3 m/s 760 mmHg 83%
    07:00 +27°C° 0 mm 3 m/s 760 mmHg 81%
    08:00 +28°C° 0 mm 4 m/s 761 mmHg 75%
    09:00 +30°C° 0 mm 4 m/s 761 mmHg 69%
    10:00 +32°C° 0 mm 5 m/s 761 mmHg 63%
    11:00 +32°C° 0.1 mm 5 m/s 761 mmHg 62%
    12:00 +33°C° 0.1 mm 5 m/s 761 mmHg 60%
    13:00 +33°C° 0.1 mm 5 m/s 761 mmHg 59%
    14:00 +33°C° 0 mm 6 m/s 760 mmHg 60%
    15:00 +33°C° 0 mm 6 m/s 760 mmHg 61%
    16:00 +32°C° 0 mm 6 m/s 759 mmHg 62%
    17:00 +30°C° 0 mm 5 m/s 760 mmHg 67%
    18:00 +29°C° 0 mm 5 m/s 760 mmHg 71%
    19:00 +28°C° 0 mm 5 m/s 760 mmHg 76%
    20:00 +28°C° 0 mm 4 m/s 761 mmHg 78%
    21:00 +28°C° 0 mm 4 m/s 761 mmHg 81%
    22:00 +27°C° 0 mm 4 m/s 762 mmHg 83%
    23:00 +27°C° 0.1 mm 3 m/s 761 mmHg 85%

    18 Dezembro, Terça-feira

    Tempo Temperatura Precipitação Vento Pressão Humidade
    00:00 +27°C° 0.1 mm 3 m/s 761 mmHg 86%
    01:00 +27°C° 0.1 mm 3 m/s 760 mmHg 87%
    02:00 +27°C° 0.1 mm 3 m/s 760 mmHg 88%
    03:00 +27°C° 0.1 mm 3 m/s 760 mmHg 88%
    04:00 +26°C° 0.1 mm 3 m/s 759 mmHg 89%
    05:00 +27°C° 0.1 mm 3 m/s 760 mmHg 88%
    06:00 +27°C° 0.1 mm 3 m/s 760 mmHg 87%
    07:00 +27°C° 0.1 mm 3 m/s 760 mmHg 86%
    08:00 +28°C° 0.3 mm 3 m/s 761 mmHg 81%
    09:00 +29°C° 0.3 mm 4 m/s 761 mmHg 77%
    10:00 +30°C° 0.3 mm 4 m/s 761 mmHg 72%
    11:00 +32°C° 0.5 mm 5 m/s 761 mmHg 70%
    12:00 +32°C° 0.5 mm 5 m/s 761 mmHg 69%
    13:00 +32°C° 0.5 mm 5 m/s 760 mmHg 67%
    14:00 +32°C° 0.1 mm 6 m/s 760 mmHg 67%
    15:00 +32°C° 0.1 mm 6 m/s 759 mmHg 67%
    16:00 +32°C° 0.1 mm 6 m/s 759 mmHg 67%
    17:00 +30°C° 0.1 mm 6 m/s 759 mmHg 71%
    18:00 +29°C° 0.1 mm 5 m/s 759 mmHg 75%
    19:00 +28°C° 0.1 mm 5 m/s 760 mmHg 80%
    20:00 +28°C° 0.1 mm 4 m/s 760 mmHg 82%
    21:00 +28°C° 0.1 mm 4 m/s 760 mmHg 83%
    22:00 +27°C° 0.1 mm 4 m/s 761 mmHg 85%
    23:00 +27°C° 0.1 mm 3 m/s 760 mmHg 86%

    19 Dezembro, Quarta-feira

    Tempo Temperatura Precipitação Vento Pressão Humidade
    00:00 +27°C° 0.1 mm 3 m/s 760 mmHg 86%
    01:00 +27°C° 0.1 mm 3 m/s 760 mmHg 87%
    02:00 +27°C° 0 mm 3 m/s 759 mmHg 87%
    03:00 +26°C° 0 mm 3 m/s 759 mmHg 87%
    04:00 +26°C° 0 mm 3 m/s 759 mmHg 87%
    05:00 +26°C° 0 mm 3 m/s 759 mmHg 86%
    06:00 +27°C° 0 mm 3 m/s 760 mmHg 86%
    07:00 +27°C° 0 mm 3 m/s 760 mmHg 85%
    08:00 +28°C° 0.1 mm 3 m/s 760 mmHg 79%
    09:00 +29°C° 0.1 mm 4 m/s 760 mmHg 73%
    10:00 +32°C° 0.1 mm 4 m/s 760 mmHg 67%
    11:00 +32°C° 0 mm 4 m/s 760 mmHg 64%
    12:00 +32°C° 0 mm 4 m/s 760 mmHg 62%
    13:00 +33°C° 0 mm 4 m/s 759 mmHg 60%
    14:00 +33°C° 0 mm 5 m/s 759 mmHg 60%
    15:00 +33°C° 0 mm 5 m/s 758 mmHg 60%
    16:00 +33°C° 0 mm 5 m/s 757 mmHg 60%
    17:00 +32°C° 0 mm 5 m/s 758 mmHg 65%
    18:00 +29°C° 0 mm 4 m/s 758 mmHg 70%
    19:00 +28°C° 0 mm 4 m/s 758 mmHg 75%
    20:00 +28°C° 0 mm 4 m/s 758 mmHg 77%
    21:00 +27°C° 0 mm 4 m/s 759 mmHg 79%
    22:00 +27°C° 0 mm 3 m/s 759 mmHg 82%
    23:00 +27°C° 0 mm 3 m/s 759 mmHg 82%

    20 Dezembro, Quinta-feira

    Tempo Temperatura Precipitação Vento Pressão Humidade
    00:00 +26°C° 0 mm 3 m/s 758 mmHg 83%
    01:00 +26°C° 0 mm 3 m/s 758 mmHg 84%
    02:00 +26°C° 0 mm 3 m/s 758 mmHg 84%
    03:00 +26°C° 0 mm 3 m/s 758 mmHg 85%
    04:00 +26°C° 0 mm 3 m/s 758 mmHg 86%
    05:00 +26°C° 0 mm 2 m/s 758 mmHg 85%
    06:00 +26°C° 0 mm 2 m/s 759 mmHg 84%
    07:00 +26°C° 0 mm 2 m/s 759 mmHg 83%
    08:00 +28°C° 0 mm 2 m/s 760 mmHg 75%
    09:00 +29°C° 0 mm 2 m/s 760 mmHg 68%
    10:00 +31°C° 0 mm 3 m/s 760 mmHg 60%
    11:00 +33°C° 0 mm 3 m/s 760 mmHg 58%
    12:00 +33°C° 0 mm 3 m/s 759 mmHg 56%
    13:00 +34°C° 0 mm 4 m/s 759 mmHg 53%
    14:00 +34°C° 0 mm 4 m/s 758 mmHg 55%
    15:00 +33°C° 0 mm 4 m/s 758 mmHg 57%
    16:00 +33°C° 0 mm 5 m/s 757 mmHg 59%
    17:00 +32°C° 0 mm 5 m/s 757 mmHg 64%
    18:00 +30°C° 0 mm 4 m/s 758 mmHg 69%
    19:00 +28°C° 0 mm 4 m/s 758 mmHg 75%
    20:00 +28°C° 0 mm 4 m/s 758 mmHg 78%
    21:00 +27°C° 0 mm 4 m/s 759 mmHg 81%
    22:00 +27°C° 0 mm 4 m/s 759 mmHg 84%
    23:00 +27°C° 0 mm 4 m/s 759 mmHg 85%
    Mostrar mais